Terminal Aerodrome Forecast
Issued by NWS

Home | Current Version | Previous Version | Text Only | Print | Product List | Glossary On
Versions: 1 2 3 4 5 6 7 8 9 10 11 12 13 14
000
FTUS45 KRIW 011700
TAFLND
TAF
KLND 011735Z 0118/0218 VRB05KT P6SM -SHRA BKN022
     FM020000 VRB05KT P6SM VCSH SCT025 BKN040
     FM020200 24007KT P6SM SCT050 BKN100
     FM020600 VRB05KT P6SM FEW100=

USA.gov is the U.S. government's official web portal to all federal, state and local government web resources and services.